This is the latest recevied weather packets stored in our database for station/object KJ4AJP. If no packets are shown the sender has not sent any weather packets the latest 10 day(s).
| Time | Temp. | Humidity | Pressure | Rain* | Wind** | Luminosity | Snow |
|---|---|---|---|---|---|---|---|
| 1777649962 | 17.78° C | 43% | 1018.2 hPa | 0 mm | - | 613 W/m² | - |
| 1777649660 | 17.78° C | 44% | 1018.5 hPa | 0 mm | - | 643 W/m² | - |
| 1777649355 | 17.78° C | 41% | 1017.9 hPa | 0 mm | - | 611 W/m² | - |
| 1777649053 | 17.78° C | 45% | 1018 hPa | 0 mm | - | 587 W/m² | - |
| 1777648750 | 17.22° C | 44% | 1017.9 hPa | 0 mm | - | 565 W/m² | - |
| 1777648447 | 17.22° C | 44% | 1017.8 hPa | 0 mm | - | 582 W/m² | - |
| 1777648143 | 17.22° C | 45% | 1017.9 hPa | 0 mm | - | 566 W/m² | - |
| 1777647839 | 17.22° C | 45% | 1017.9 hPa | 0 mm | - | 552 W/m² | - |
| 1777647535 | 16.67° C | 50% | 1018.1 hPa | 0 mm | - | 511 W/m² | - |
| 1777647232 | 16.67° C | 47% | 1018 hPa | 0 mm | - | 510 W/m² | - |
| 1777646930 | 16.67° C | 51% | 1018 hPa | 0 mm | - | 523 W/m² | - |
| 1777646625 | 16.67° C | 53% | 1018 hPa | 0 mm | - | 489 W/m² | - |
| 1777646321 | 16.11° C | 56% | 1017.6 hPa | 0 mm | - | 420 W/m² | - |
| 1777646018 | 15.56° C | 56% | 1017.5 hPa | 0 mm | - | 396 W/m² | - |
| 1777645715 | 15.56° C | 58% | 1017.6 hPa | 0 mm | - | 423 W/m² | - |
| 1777645412 | 15° C | 58% | 1017.4 hPa | 0 mm | - | 389 W/m² | - |
| 1777645107 | 15° C | 59% | 1017.3 hPa | 0 mm | - | 320 W/m² | - |
| 1777644804 | 14.44° C | 63% | 1017.3 hPa | 0 mm | - | 356 W/m² | - |
| 1777644502 | 15° C | 61% | 1017.3 hPa | 0 mm | - | 238 W/m² | - |
| 1777644198 | 15° C | 65% | 1017.5 hPa | 0 mm | - | 115 W/m² | - |
| 1777643894 | 14.44° C | 66% | 1017.2 hPa | 0 mm | - | 189 W/m² | - |
| 1777643592 | 14.44° C | 67% | 1017.4 hPa | 0 mm | - | 86 W/m² | - |
| 1777643289 | 14.44° C | 69% | 1017.3 hPa | 0 mm | - | 77 W/m² | - |
| 1777642985 | 13.89° C | 73% | 1017.5 hPa | 0 mm | - | 201 W/m² | - |
| 1777642682 | 13.89° C | 74% | 1017.4 hPa | 0 mm | - | 59 W/m² | - |
* Rain latest hour (hover to see other rain measurements)
** Current wind speed in m/s (hover to see current wind gust speed)